Regional Weather Roundup
Issued by NWS

Home | Current Version | Previous Version | Text Only | Print | Product List | Glossary On
Versions: 1 2 3 4 5 6 7 8 9 10 11 12 13 14 15 16 17 18 19 20 21 22 23 24 25 26 27 28 29 30 31 32 33 34 35 36 37 38 39 40 41 42 43 44 45 46 47 48 49 50
000
ASUS44 KFWD 260803
RWRTX
NORTH TEXAS HOURLY WEATHER ROUNDUP
NATIONAL WEATHER SERVICE FORT WORTH TX
300 AM CDT SAT MAY 26 2018

NOTE: "FAIR" INDICATES FEW OR NO CLOUDS BELOW 12,000 FEET WITH NO
SIGNIFICANT WEATHER AND/OR OBSTRUCTIONS TO VISIBILITY.

TXZ118-119-260900-
DALLAS/FORT WORTH METROPLEX

CITY           SKY/WX    TMP DP  RH WIND       PRES   REMARKS
DFW AIRPORT    MOCLDY    74  67  78 E9        29.80S
DALLAS LOVE    MOCLDY    76  66  71 E9        29.81F
FTW MEACHAM    FAIR      79  67  66 SE12      29.77F
DAL-EXECUTIVE  FAIR      73  65  75 SE10      29.80F
FTW-ALLIANCE   MOCLDY    78  66  66 E10       29.79R
FTW-NAS-JRB    FAIR      79  65  62 SE8       29.78F
FTW-SPINKS     FAIR      75  66  75 SE9       29.80F
ARLINGTON      FAIR      74  67  78 SE9       29.78F
GRAND PRAIRIE  FAIR      75  64  69 SE3       29.80F
ADDISON        FAIR      73  67  80 E13       29.84S
MESQUITE       FAIR      70  67  92 E5        29.84F
LANCASTER      FAIR      70  66  88 E6        29.83F
$$

TXZ091>094-102>105-117-120-121-131>134-260900-
NORTH CENTRAL TEXAS

CITY           SKY/WX    TMP DP  RH WIND       PRES   REMARKS
SHRMAN/DENISON FAIR      70  66  86 E9        29.83F
GAINESVILLE    FAIR      70  63  78 E6        29.85S
BOWIE          FAIR      70  64  79 E5        29.84R
BRIDGEPORT     FAIR      72  64  78 W5        29.84R
DECATUR        FAIR      73  65  75 NE5       29.84R
DENTON         FAIR      75  65  70 E8        29.81R
MCKINNEY       FAIR      70  68  93 SE5       29.84F
BONHAM         FAIR      71  65  82 SW10      29.83F
ROCKWALL       FAIR      71  67  89 SE7       29.84F
TERRELL        LGT RAIN  73  66  78 NE6       29.87R
WAXAHACHIE     FAIR      70  65  84 S7        29.80F
CLEBURNE       FAIR      73  70  88 SE10      29.80S
GRANBURY       FAIR      75  65  69 SE3       29.80S
$$

TXZ083>090-098>101-113>116-127>130-139>142-154-155-260900-
WESTERN NORTH TEXAS

CITY           SKY/WX    TMP DP  RH WIND       PRES   REMARKS
WICHITA FALLS  FAIR      67  62  84 N3        29.82S
WF-KICKAPOO    FAIR      73  61  65 N5        29.85R
VERNON         FAIR      73  62  68 NE6       29.87R
ABILENE        FAIR      72  54  53 S14       29.86F
ABILENE-DYESS  FAIR      72  51  47 SE18      29.85F
BRECKENRIDGE   FAIR      71  58  65 CALM      29.82F
CISCO          MOCLDY    72  55  56 SW15      29.84F
EASTLAND       FAIR      72  55  56 SW6       29.83F
RANGER         FAIR      72  54  54 SW9       29.81F
MINERAL WELLS  FAIR      67  63  87 CALM      29.79S
STEPHENVILLE   FAIR      72  56  58 CALM      29.84R
COMANCHE       FAIR      73  55  52 SW14      29.80F
BROWNWOOD      FAIR      70  57  64 CALM      29.85F
COLEMAN        FAIR      72  55  54 SW12      29.88F
BRADY          MOCLDY    70  59  68 SE7       29.91F
$$

TXZ143>147-156>162-174-175-260900-
CENTRAL TEXAS

CITY           SKY/WX    TMP DP  RH WIND       PRES   REMARKS
WACO           FAIR      78  68  71 S12       29.79F
WACO-MCGREGOR  FAIR      76  69  79 S9        29.79F
HILLSBORO      FAIR      76  70  80 SE12      29.79F
MEXIA          FAIR      70  65  86 S5        29.84F
HEARNE         FAIR      74  73  96 W3        29.87S
CAMERON        FAIR      77  71  81 W6        29.88R
TEMPLE         FAIR      75  65  70 SW12      29.84F
KILLEEN        CLOUDY    70  63  77 W20       29.82F
KILLEEN-SKYLRK FAIR      73  64  73 SW14G20   29.83F
FORT HOOD      MOCLDY    73  63  68 SW10      29.79F
GATESVILLE     FAIR      75  59  57 E5G13     29.78F
HAMILTON       FAIR      74  58  56 SW14      29.80S
LAMPASAS       FAIR      67  62  83 SW8       29.84F
$$

TXZ095>097-106>112-122>126-135>138-148>153-164>167-260900-
EAST TEXAS

CITY           SKY/WX    TMP DP  RH WIND       PRES   REMARKS
PARIS          LGT RAIN  68  67  96 SW5       29.86F
SULPHUR SPRNGS FAIR      72  67  84 CALM      29.89F
MOUNT PLEASANT FAIR      70  67  89 W6        29.88R
GILMER         FAIR      70  66  85 CALM      29.84S THUNDER
MINEOLA        FAIR      68  66  94 CALM      29.88R
TYLER          CLOUDY    71  67  87 NW5       29.87R
LONGVIEW       FAIR      74  71  91 SW13      29.81F
MARSHALL       FAIR      70  68  93 CALM      29.85S
ATHENS         FAIR      70  64  83 CALM      29.83S
PALESTINE      FAIR      72  69  90 CALM      29.87R
JACKSONVILLE   FAIR      73  70  92 S7        29.86F
HENDERSON      FAIR      71  68  91 S5        29.84F
CENTER         FAIR      73  69  88 CALM      29.86F
NACOGDOCHES      N/A     70  69  97 CALM      29.86F
LUFKIN         FAIR      73  69  87 CALM      29.85F
$$

SUPPLEMENTAL OBSERVATIONS (NWS FORT WORTH AREA)

CITY           SKY/WX    TMP DP  RH WIND       PRES   REMARKS
$$

SUPPLEMENTAL OBSERVATIONS (NWS NORMAN AREA)

CITY           SKY/WX    TMP DP  RH WIND       PRES   REMARKS
GOODLETT         N/A     67  59  73 NE8       29.87R
ODELL            N/A     68  63  82 N1        29.88R
CROWELL          N/A     71  60  68 SW8       29.85F
KNOX CITY        N/A     71  60  67 S10       29.86F
SEYMOUR          N/A     71  59  64 SW9       29.83F
$$

SUPPLEMENTAL OBSERVATIONS (NWS SAN ANGELO AREA)

CITY           SKY/WX    TMP DP  RH WIND       PRES   REMARKS
WEINERT          N/A     69  61  75 SW8       29.86F
HASKELL          N/A     69  58  68 S10       29.86F
THROCKMORTON     N/A     73  59  62 SW9       29.84F
STAMFORD         N/A     70  61  74 SW9       29.87F
CLYDE            N/A     68  57  68 SE10      29.91R
$$

SUPPLEMENTAL OBSERVATIONS (NWS SHREVEPORT AREA)

CITY           SKY/WX    TMP DP  RH WIND       PRES   REMARKS
$$

SUPPLEMENTAL OBSERVATIONS ARE A COLLECTION OF AUTOMATED INSTRUMENTS
THAT ARE MAINTAINED BY A VARIETY OF FEDERAL AND STATE AGENCIES.
CERTAIN ELEMENTS...SUCH AS HUMIDITY VALUES AND SUSTAINED WIND
SPEEDS...MAY BE APPROXIMATED.




USA.gov is the U.S. government's official web portal to all federal, state and local government web resources and services.